Regional Weather Roundup
Issued by NWS Jackson, KY

Home | Current Version | Previous Version | Graphics & Text | Print | Product List | Glossary On
Versions: 1 2 3 4 5 6 7 8 9 10 11 12 13 14 15 16 17 18 19 20 21 22 23 24 25 26 27 28 29 30 31 32 33 34 35 36 37 38 39 40 41 42 43 44 45 46 47 48 49 50
000
ASUS43 KJKL 032110
RWRJKL

EAST KENTUCKY HOURLY WEATHER ROUNDUP
NATIONAL WEATHER SERVICE JACKSON KY
500 PM EDT SUN MAY 03 2015

NOTE: "FAIR" INDICATES FEW OR NO CLOUDS BELOW 12,000 FEET WITH
NO SIGNIFICANT WEATHER AND/OR OBSTRUCTIONS TO VISIBILITY.

* THESE REPORTS ARE NOT UNDER NWS QUALITY CONTROL AND MAY NOT
  REPORT WEATHER SUCH AS PRECIPITATION AND FOG.

KYZ079-080-083-085-087-088-110-112-115-119-120-032200
...EASTERN KENTUCKY...

CITY           SKY/WX    TMP DP  RH WIND       PRES   REMARKS
JACKSON        MOSUNNY   78  41  26 CALM      30.11F
LONDON         MOSUNNY   79  40  24 VRB3      30.10F
SOMERSET*      SUNNY     77  45  31 W3        30.10F
MONTICELLO*    MOSUNNY   81  48  31 SW9       30.12F
MIDDLESBORO*   SUNNY     77  44  30 S6        30.11F
HARLAN APT*    CLEAR     77  34  20 SW6       30.12F
HAZARD APT*    CLEAR     77  41  27 S5        30.11F
BLACK MTN*       N/A     66  37  34 S6          N/A
PIKEVILLE APT* SUNNY     75  41  29 NE5       30.12F
BIG SANDY*     PTCLDY   N/A N/A N/A CALM      30.11F
MOREHEAD APT*  PTCLDY    77  43  29 W7        30.12F
$$

KYZ035-036-041-042-044-050-067-078-099-032200
...CENTRAL KENTUCKY...

CITY           SKY/WX    TMP DP  RH WIND       PRES   REMARKS
MT STERLING*   SUNNY     77  46  33 W8        30.11F
FLEMING/MASON* SUNNY     77  48  36 SW9       30.11F
DANVILLE*      MOSUNNY   79  45  29 S6        30.10F
RICHMOND*      MOSUNNY   75  41  29 CALM      30.10F
LEXINGTON      MOSUNNY   75  48  38 S9        30.10F
FRANKFORT      SUNNY     77  43  29 VRB5      30.07F
$$

KYZ091>093-OHZ055-061-077-WVZ005-015-034-035-042-032200
...SOUTHERN OHIO/WEST VIRGINIA...

CITY           SKY/WX    TMP DP  RH WIND       PRES   REMARKS
COVINGTON      MOSUNNY   76  47  35 SW10G17   30.07F
COLUMBUS       MOSUNNY   77  44  30 SW8G17    30.07F
DAYTON         MOSUNNY   77  47  34 SW8       30.07F
WILMINGTON     PTSUNNY   74  44  34 S12       30.07F
HUNTINGTON     MOSUNNY   77  40  26 VRB5      30.09F
CHARLESTON     MOSUNNY   80  37  21 N9        30.10F
PINEVILLE*     MOSUNNY   76  37  24 MISG      30.18S
BECKLEY        SUNNY     73  32  22 VRB3      30.15F
BLUEFIELD      MOSUNNY   72  33  24 N5        30.17F
$$

VAZ002-007-008-TNZ017-027-036-066-071-032200
...SOUTHWEST VIRGINIA/EAST TENNESSEE...

CITY           SKY/WX    TMP DP  RH WIND       PRES   REMARKS
WISE*          SUNNY     73  32  21 CALM      30.17F
JONESVILLE*    CLEAR     77  39  25 CALM      30.14F
ABINGDON*      SUNNY     74  40  29 W7        30.15F
BRISTOL        MOSUNNY   78  41  26 NW6       30.12F
KNOXVILLE      MOSUNNY   77  45  32 W8        30.11F
OAK RIDGE      SUNNY     79  44  28 SW7       30.12F
CROSSVILLE     MOSUNNY   73  46  38 VRB6      30.14F
NASHVILLE      PTSUNNY   80  48  32 S6        30.08F
$$

...KEY TO REMARKS...
VSB - VISIBILITY IN MILES
WCI - WIND CHILL INDEX
HX  - HEAT INDEX

$$


USA.gov is the U.S. government's official web portal to all federal, state and local government web resources and services.